Wind_Speed
12 10 8 7 8 9 12 12 13 15 16 18 19 18 19 18 16 15 15 14 13 11 10 10 11 11 13 13 13 13 12 13 13 13 13 12 10 9 8 8 7 7 7 6
11 9 8 9 11 13 13 13 13 14 16 18 17 16 17 17 15 15 14 12 10 9 8 8 8 9 11 11 10 11 10 11 12 11 11 10 10 8 6 5 4 4 4 5
11 9 10 11 12 14 14 13 14 16 15 15 15 15 16 16 17 16 13 9 8 8 7 7 7 8 9 10 9 9 9 8 8 8 8 8 7 6 5 4 3 2 2 3
12 11 13 14 14 14 14 14 15 15 14 14 13 14 15 15 15 14 12 8 7 6 6 7 7 8 9 9 8 8 8 8 8 8 7 7 7 6 5 5 3 2 2 3
13 13 15 15 15 15 15 16 15 13 14 15 13 13 14 14 13 12 10 7 5 5 5 5 6 7 8 8 8 8 8 8 8 8 7 7 6 6 6 5 3 3 3 3
16 15 15 15 15 15 15 15 13 13 15 16 13 10 13 14 13 11 7 5 4 5 5 5 6 7 7 7 7 8 8 9 8 8 7 7 6 6 5 4 3 3 3 3
16 17 17 17 17 15 15 14 13 15 15 15 11 8 11 12 12 9 7 5 3 3 4 5 6 6 6 7 7 7 8 8 8 8 8 7 6 5 4 3 3 2 2 3
16 17 18 19 19 16 15 14 14 16 14 15 11 9 8 10 10 8 6 5 4 3 3 4 5 5 5 6 6 6 7 8 8 8 8 7 6 6 5 4 2 2 2 3
16 18 18 19 19 17 15 15 13 16 14 17 13 8 9 8 7 8 7 6 4 3 3 3 4 5 5 6 6 5 7 8 9 8 8 7 7 6 5 3 2 2 2 4
21 22 22 22 19 17 16 14 14 15 16 17 17 15 10 7 7 8 7 6 5 4 4 4 5 5 5 6 5 6 6 7 7 8 8 7 7 5 5 4 3 3 3 5
23 24 24 23 20 17 19 19 18 17 16 16 19 13 8 7 7 9 8 7 6 5 5 5 5 5 7 7 6 6 7 7 7 7 7 6 6 5 5 4 4 5 5 6
26 26 27 25 22 19 20 21 20 20 17 16 16 16 10 7 8 10 9 8 7 7 6 5 6 6 7 7 7 7 7 7 7 7 7 7 6 5 5 6 7 7 8 9
28 29 28 26 25 22 20 20 19 19 20 17 15 19 16 13 11 10 9 9 9 8 8 7 6 7 8 8 8 8 8 8 8 8 8 7 7 7 7 8 8 9 10 11
29 29 29 27 26 25 22 21 21 21 21 18 17 19 18 14 13 11 9 10 10 10 10 9 8 8 8 9 9 9 9 10 10 9 9 9 9 9 9 10 11 12 13 14
31 31 31 29 28 28 25 22 22 22 20 19 18 18 19 17 14 13 11 12 12 11 11 11 10 10 9 9 10 10 10 10 10 10 11 11 11 11 12 13 13 14 15 16
30 31 31 29 28 29 27 24 20 21 21 20 18 18 20 20 17 18 15 13 13 13 12 12 12 12 11 11 11 11 12 12 12 12 12 13 13 14 14 15 16 17 18 19
27 30 31 27 26 28 26 21 18 19 19 17 18 20 21 21 20 18 15 15 14 13 14 13 13 12 12 12 13 13 13 13 14 14 14 15 15 16 17 17 18 19 20 21
26 29 30 29 27 29 22 20 20 20 20 21 24 25 23 23 21 19 17 16 16 15 14 14 14 13 13 14 14 14 14 15 16 16 17 17 17 18 19 19 20 21 22 23
26 28 30 30 29 27 24 24 23 24 23 23 25 24 23 22 21 21 20 18 17 16 16 16 16 15 15 15 16 16 16 17 17 17 18 18 19 19 20 21 22 23 23 24
26 28 30 30 30 29 25 25 26 26 25 25 26 26 24 24 22 22 22 19 17 17 17 17 17 17 17 16 17 18 18 18 18 18 19 19 20 21 22 23 24 25 25 26
23 25 28 28 29 28 27 27 27 26 26 25 25 26 25 25 23 23 21 20 19 19 19 19 18 18 18 18 19 19 19 20 20 20 20 21 22 23 23 24 25 26 26 27
24 24 25 27 28 27 27 26 27 25 25 25 23 24 24 23 22 22 21 21 21 21 20 20 20 20 20 20 20 20 21 22 22 22 22 23 24 25 25 26 26 27 28 28
21 23 24 25 25 25 24 24 24 24 24 24 24 23 23 23 23 22 22 22 22 22 22 21 22 21 21 21 21 21 21 22 23 23 24 24 25 26 27 27 27 28 29 29
23 24 25 26 26 25 25 24 23 24 24 23 24 24 23 24 23 23 23 22 22 22 22 23 23 22 22 23 22 22 23 23 25 25 26 26 28 28 28 28 28 29 30 29
24 23 24 24 24 25 25 26 25 23 22 24 24 24 23 24 24 23 23 22 22 23 23 24 24 24 24 24 24 25 25 25 26 27 28 28 29 30 29 29 30 30 30 31
22 24 24 23 23 24 23 24 24 24 25 25 25 24 24 24 23 24 24 23 23 24 24 24 25 25 26 27 26 27 28 28 27 28 28 29 30 30 31 31 32 32 32 33
Wind_Direction
261 258 261 263 264 263 272 272 273 279 283 293 298 306 309 311 311 308 302 296 285 278 267 252 238 232 233 235 237 238 244 242 239 237 238 243 247 252 252 256 269 274 278 285
253 253 252 242 248 256 261 264 272 281 286 295 301 308 309 312 314 315 307 297 282 271 256 244 231 226 227 232 234 240 242 239 235 235 235 236 241 244 242 243 257 269 281 298
247 248 254 250 254 258 258 266 271 274 281 291 301 305 309 315 323 324 317 300 277 260 254 242 234 232 226 229 234 243 241 227 220 214 214 218 222 224 224 231 246 250 277 303
240 232 245 252 256 258 265 264 268 273 281 285 290 295 306 318 323 323 321 306 269 248 244 234 229 230 224 223 231 238 231 216 206 205 207 212 218 222 221 224 228 242 279 309
234 232 241 248 252 254 260 263 264 268 271 270 277 292 306 314 321 324 325 310 273 242 233 223 228 230 224 222 225 226 223 212 205 206 205 207 208 213 217 221 233 255 284 308
230 231 242 250 253 258 260 263 266 271 274 272 274 284 299 310 316 316 317 309 279 241 227 220 220 219 219 219 221 223 217 211 206 202 201 202 205 211 215 223 240 263 292 310
230 227 233 243 249 258 262 263 271 279 287 283 279 272 287 311 314 319 319 316 297 262 225 219 214 214 221 221 218 217 209 203 201 200 201 206 209 213 218 224 237 268 298 312
236 238 236 234 241 251 259 262 266 276 287 297 283 265 282 303 309 312 310 314 298 263 225 215 212 212 219 219 212 212 205 201 200 202 206 208 212 216 221 228 238 265 297 317
234 246 252 245 238 239 248 257 265 274 279 288 283 262 257 273 297 303 298 295 291 261 232 219 212 210 211 205 200 201 199 199 200 203 204 204 207 216 225 225 231 260 295 318
229 237 243 250 242 238 244 250 258 263 265 273 281 271 261 291 298 295 291 286 280 265 249 231 219 215 210 201 200 198 194 193 196 199 200 205 211 218 224 230 237 271 297 312
232 236 239 245 239 234 243 245 243 253 256 269 288 293 288 289 300 300 295 284 277 263 253 246 236 230 213 204 204 200 203 202 201 202 203 205 207 217 227 237 257 278 294 307
229 233 237 241 243 241 241 247 244 252 255 258 278 288 284 282 297 298 291 280 268 257 253 251 246 234 218 211 211 210 212 210 208 207 208 210 218 234 244 257 269 280 290 302
228 232 237 240 241 245 244 244 244 250 256 258 264 277 282 288 288 287 280 273 266 257 253 254 250 239 227 220 218 218 219 218 218 219 220 224 237 249 258 266 275 283 291 298
231 234 236 237 239 242 244 239 233 240 247 251 257 268 279 285 279 281 275 271 264 258 252 249 246 241 233 228 226 227 225 223 225 228 234 241 250 259 266 272 278 285 292 298
237 239 237 239 243 243 244 241 233 232 236 243 249 260 275 282 270 272 270 270 263 259 253 247 245 241 237 236 235 234 233 231 234 239 245 251 257 264 271 275 280 286 292 297
237 237 237 241 243 248 249 243 237 234 234 238 245 255 264 271 273 271 268 267 262 258 254 250 247 243 239 239 239 239 240 242 245 249 253 258 263 268 273 278 281 285 290 295
238 238 239 240 240 245 249 249 244 236 233 234 244 249 253 262 267 267 268 268 260 259 257 254 250 247 245 245 245 246 247 249 252 256 260 263 267 271 275 278 282 285 289 294
246 244 243 242 239 242 241 240 241 242 239 238 242 246 248 254 259 263 267 265 258 256 256 254 252 252 252 252 252 252 254 255 257 259 262 264 268 272 276 279 282 285 289 293
246 244 243 242 242 242 237 236 240 240 237 239 242 247 249 254 259 261 261 259 256 256 258 257 254 255 256 257 257 257 258 259 260 261 263 266 269 272 276 278 282 285 288 291
244 244 242 240 241 242 237 235 235 236 238 237 239 244 248 251 252 255 255 254 255 254 257 259 260 260 261 259 259 261 262 262 262 263 265 268 271 274 277 280 283 284 288 291
246 244 241 243 245 242 239 235 233 234 237 239 239 243 247 249 251 252 252 254 255 254 256 258 259 260 262 263 262 263 263 264 264 265 267 270 273 275 278 281 283 285 287 289
244 243 242 242 243 240 239 233 231 232 236 241 238 240 244 247 250 252 253 255 256 256 256 259 260 261 264 265 265 265 265 266 268 269 270 272 273 275 278 281 283 285 286 289
245 242 242 241 239 238 238 236 234 230 235 239 240 242 245 248 251 252 253 256 256 257 257 258 260 262 264 266 267 266 267 268 270 272 273 274 275 278 280 282 285 287 287 289
245 245 246 240 238 237 237 239 238 235 237 240 242 245 248 249 250 253 255 256 257 258 258 260 260 261 263 265 266 267 268 270 271 272 273 276 278 280 281 283 286 288 288 289
245 248 248 249 245 241 241 241 238 243 242 242 244 246 247 249 250 254 255 256 257 258 260 259 260 262 263 266 267 267 267 270 273 274 274 276 279 280 281 283 286 288 289 289
252 251 254 256 252 248 248 243 239 240 240 241 244 246 248 251 253 255 255 257 258 258 259 260 261 262 264 265 267 268 268 271 274 276 277 279 279 279 281 283 285 285 286 288
Height
5860 5861 5862 5864 5865 5866 5867 5868 5867 5866 5863 5861 5859 5856 5852 5849 5847 5845 5843 5842 5840 5840 5840 5839 5840 5842 5845 5847 5849 5851 5852 5854 5856 5858 5861 5863 5865 5866 5867 5868 5869 5869 5870 5870
5857 5858 5860 5861 5863 5864 5864 5865 5864 5863 5861 5859 5856 5854 5851 5847 5844 5842 5841 5839 5838 5838 5838 5839 5840 5842 5844 5846 5847 5849 5850 5852 5854 5857 5859 5861 5863 5864 5865 5866 5867 5868 5869 5869
5854 5857 5858 5859 5860 5861 5861 5861 5861 5860 5858 5857 5854 5852 5849 5845 5843 5840 5838 5837 5837 5837 5837 5838 5839 5841 5843 5845 5847 5848 5850 5851 5853 5855 5857 5859 5861 5863 5864 5865 5866 5867 5868 5868
5850 5853 5855 5856 5857 5858 5857 5858 5857 5856 5855 5853 5852 5849 5846 5844 5842 5839 5837 5836 5835 5836 5837 5838 5839 5840 5841 5843 5846 5847 5849 5851 5852 5854 5856 5858 5860 5862 5863 5864 5865 5866 5867 5868
5847 5850 5851 5853 5854 5854 5854 5854 5854 5853 5852 5849 5848 5846 5845 5843 5841 5839 5837 5835 5835 5835 5836 5837 5838 5839 5841 5843 5844 5846 5848 5849 5851 5853 5855 5857 5859 5861 5863 5864 5865 5866 5866 5867
5844 5846 5848 5850 5851 5851 5851 5851 5850 5849 5847 5846 5845 5844 5843 5841 5840 5838 5836 5836 5835 5835 5835 5836 5838 5839 5840 5842 5843 5845 5846 5848 5850 5852 5854 5856 5858 5860 5861 5863 5864 5865 5865 5866
5840 5842 5844 5846 5846 5847 5848 5848 5848 5846 5844 5840 5840 5841 5842 5840 5839 5837 5836 5836 5835 5835 5835 5836 5837 5838 5840 5841 5842 5844 5845 5847 5849 5851 5853 5856 5857 5859 5860 5862 5863 5864 5864 5865
5836 5838 5840 5840 5842 5844 5844 5845 5845 5843 5841 5839 5837 5838 5840 5839 5838 5838 5837 5836 5836 5836 5836 5836 5837 5838 5839 5840 5842 5843 5844 5846 5848 5850 5852 5854 5856 5858 5859 5861 5862 5863 5863 5864
5833 5834 5835 5836 5837 5839 5840 5841 5842 5841 5840 5838 5834 5834 5836 5835 5836 5837 5837 5836 5836 5836 5836 5836 5837 5838 5839 5840 5841 5843 5844 5846 5848 5850 5851 5853 5855 5857 5858 5860 5861 5862 5862 5863
5828 5830 5831 5830 5832 5834 5837 5838 5839 5838 5837 5835 5833 5831 5831 5833 5834 5835 5835 5835 5835 5835 5836 5836 5836 5837 5838 5839 5841 5842 5844 5846 5847 5849 5851 5853 5854 5856 5857 5859 5860 5861 5861 5861
5822 5824 5826 5826 5827 5830 5833 5834 5834 5835 5834 5833 5831 5830 5828 5831 5832 5834 5834 5834 5834 5834 5835 5835 5836 5836 5837 5838 5840 5842 5844 5845 5847 5848 5850 5852 5854 5855 5856 5858 5859 5859 5860 5860
5815 5818 5819 5821 5823 5824 5826 5828 5829 5831 5831 5831 5830 5831 5827 5828 5830 5831 5832 5833 5833 5834 5834 5835 5835 5835 5836 5838 5840 5841 5843 5844 5846 5848 5849 5851 5852 5854 5855 5856 5857 5857 5858 5858
5807 5810 5813 5816 5819 5819 5820 5823 5825 5826 5827 5828 5829 5829 5826 5826 5828 5829 5830 5831 5831 5832 5833 5833 5834 5835 5836 5837 5839 5840 5842 5843 5845 5847 5848 5850 5851 5852 5853 5854 5855 5855 5856 5855
5801 5804 5808 5811 5812 5813 5814 5817 5818 5821 5822 5825 5826 5825 5823 5823 5824 5825 5827 5828 5829 5830 5831 5832 5833 5833 5835 5836 5837 5839 5840 5842 5843 5845 5847 5848 5849 5850 5851 5852 5852 5853 5853 5852
5795 5798 5801 5804 5806 5807 5808 5810 5813 5815 5818 5821 5822 5822 5821 5820 5821 5822 5824 5826 5827 5828 5829 5830 5831 5832 5833 5834 5836 5837 5839 5840 5841 5843 5844 5845 5846 5847 5848 5849 5849 5849 5849 5849
5788 5791 5795 5797 5800 5802 5802 5804 5807 5810 5813 5815 5818 5819 5819 5817 5818 5820 5821 5822 5824 5825 5826 5827 5828 5829 5831 5832 5834 5835 5836 5838 5839 5840 5841 5842 5843 5844 5845 5845 5845 5845 5845 5844
5781 5785 5788 5791 5794 5795 5797 5800 5802 5805 5807 5810 5813 5815 5815 5814 5815 5815 5817 5819 5820 5821 5823 5824 5825 5826 5828 5829 5831 5832 5833 5835 5836 5837 5838 5839 5839 5840 5840 5841 5841 5841 5840 5839
5775 5779 5782 5784 5788 5789 5795 5796 5797 5799 5802 5805 5808 5808 5810 5810 5811 5811 5813 5815 5816 5818 5819 5820 5822 5823 5825 5826 5827 5828 5830 5831 5832 5833 5834 5834 5835 5835 5835 5836 5835 5835 5835 5834
5770 5772 5775 5778 5780 5783 5789 5791 5792 5793 5795 5799 5800 5802 5804 5806 5807 5808 5809 5810 5812 5814 5816 5817 5818 5820 5821 5822 5823 5824 5825 5827 5827 5828 5829 5829 5830 5830 5830 5830 5830 5829 5828 5827
5765 5766 5769 5771 5774 5776 5782 5784 5784 5787 5788 5790 5793 5796 5799 5801 5802 5803 5804 5807 5809 5810 5812 5813 5814 5815 5816 5818 5819 5820 5821 5822 5822 5823 5823 5824 5824 5824 5824 5824 5823 5823 5822 5820
5759 5761 5762 5765 5767 5769 5774 5776 5778 5781 5782 5783 5787 5790 5793 5796 5797 5799 5800 5803 5804 5806 5807 5808 5809 5811 5812 5813 5814 5815 5815 5816 5817 5817 5818 5818 5818 5818 5818 5817 5817 5816 5815 5813
5752 5755 5756 5758 5761 5765 5766 5767 5770 5772 5775 5778 5780 5784 5787 5790 5791 5793 5795 5797 5799 5801 5802 5803 5804 5805 5806 5807 5808 5809 5810 5810 5810 5811 5812 5812 5811 5811 5811 5810 5809 5808 5807 5806
5747 5749 5750 5752 5756 5757 5758 5759 5761 5765 5769 5772 5775 5778 5781 5784 5786 5788 5790 5792 5794 5795 5796 5798 5799 5800 5801 5801 5802 5802 5803 5804 5804 5805 5805 5805 5804 5804 5804 5803 5802 5801 5799 5798
5741 5742 5744 5746 5747 5750 5753 5754 5756 5759 5763 5767 5770 5773 5775 5778 5780 5782 5784 5786 5788 5789 5790 5791 5792 5794 5794 5795 5795 5796 5796 5797 5797 5797 5797 5797 5797 5796 5796 5795 5794 5792 5791 5790
5737 5737 5738 5739 5742 5744 5747 5749 5752 5755 5757 5761 5764 5767 5769 5772 5774 5776 5778 5780 5781 5783 5784 5785 5786 5787 5788 5788 5789 5789 5789 5789 5789 5789 5789 5789 5789 5788 5787 5786 5785 5784 5783 5781
5732 5734 5735 5735 5736 5738 5740 5743 5746 5749 5752 5755 5758 5761 5763 5766 5768 5770 5772 5773 5774 5776 5777 5778 5779 5780 5780 5781 5781 5782 5782 5782 5781 5781 5781 5781 5780 5780 5779 5777 5777 5775 5774 5772